TimeCDT,TemperatureF,Dew PointF,Humidity,Sea Level PressureIn,VisibilityMPH,Wind Direction,Wind SpeedMPH,Gust SpeedMPH,PrecipitationIn,Events,Conditions,WindDirDegrees,DateUTC
12:53 AM,39.9,30.9,70,30.17,10.0,SSW,6.9,-,N/A,,Clear,200,2012-10-08 05:53:00
1:53 AM,39.0,32.0,76,30.18,10.0,SSW,6.9,-,N/A,,Clear,200,2012-10-08 06:53:00
2:53 AM,39.9,32.0,73,30.18,10.0,SW,8.1,-,N/A,,Clear,220,2012-10-08 07:53:00
3:53 AM,39.0,32.0,76,30.17,10.0,SSW,9.2,-,N/A,,Clear,210,2012-10-08 08:53:00
4:53 AM,39.0,30.9,73,30.17,10.0,SSW,9.2,-,N/A,,Clear,210,2012-10-08 09:53:00
5:53 AM,39.0,30.0,70,30.17,10.0,SSW,8.1,-,N/A,,Clear,210,2012-10-08 10:53:00
6:53 AM,39.0,30.0,70,30.18,10.0,SSW,9.2,-,N/A,,Clear,210,2012-10-08 11:53:00
7:53 AM,39.0,30.9,73,30.19,10.0,SSW,9.2,-,N/A,,Clear,210,2012-10-08 12:53:00
8:53 AM,44.1,33.1,65,30.19,10.0,SSW,11.5,-,N/A,,Clear,210,2012-10-08 13:53:00
9:53 AM,48.9,33.1,54,30.19,10.0,SW,10.4,-,N/A,,Clear,230,2012-10-08 14:53:00
10:53 AM,54.0,33.1,45,30.18,10.0,SW,11.5,-,N/A,,Clear,230,2012-10-08 15:53:00
11:53 AM,55.9,33.1,42,30.17,10.0,SSW,18.4,23.0,N/A,,Clear,210,2012-10-08 16:53:00
12:53 PM,57.9,33.1,39,30.14,10.0,SSW,15.0,-,N/A,,Clear,200,2012-10-08 17:53:00
1:53 PM,60.1,34.0,38,30.11,10.0,SSW,13.8,21.9,N/A,,Clear,200,2012-10-08 18:53:00
2:53 PM,60.1,34.0,38,30.08,10.0,SSW,17.3,24.2,N/A,,Clear,210,2012-10-08 19:53:00
3:53 PM,61.0,34.0,36,30.05,10.0,South,18.4,24.2,N/A,,Clear,190,2012-10-08 20:53:00
4:53 PM,61.0,34.0,36,30.03,10.0,SSW,15.0,21.9,N/A,,Clear,200,2012-10-08 21:53:00
5:53 PM,59.0,34.0,39,30.03,10.0,South,12.7,23.0,N/A,,Clear,190,2012-10-08 22:53:00
6:53 PM,55.0,34.0,45,30.03,10.0,SSW,9.2,-,N/A,,Clear,200,2012-10-08 23:53:00
7:53 PM,48.9,35.1,59,30.04,10.0,South,8.1,-,N/A,,Clear,180,2012-10-09 00:53:00
8:53 PM,48.0,35.1,61,30.05,10.0,South,5.8,-,N/A,,Clear,180,2012-10-09 01:53:00
9:53 PM,45.0,36.0,71,30.05,10.0,South,8.1,-,N/A,,Clear,180,2012-10-09 02:53:00
10:53 PM,46.9,36.0,66,30.04,10.0,South,8.1,-,N/A,,Clear,190,2012-10-09 03:53:00
11:53 PM,45.0,37.0,74,30.03,10.0,South,9.2,-,N/A,,Clear,190,2012-10-09 04:53:00